This demonstration page uses our WeatherBlox Daily Observations layout. Learn more.

Left ArrowRight Arrow

39.51506, -84.39828

Hourly Observations for May 7, 2020

Temp ( °F °C ) Dew Point ( °F °C ) Humidity (%) Winds ( mph kmh ) Pressure ( in mb ) Visibility ( mi km ) Precip ( " mm )
12:15 am 00:15 Clear 43 6.3 29 -1.7 57 57 NW 7 11 30.06 1018 N/A 0 0
12:35 am 00:35 Clear 42 5.6 29 -1.5 61 61 NW 6 9 30.06 1018 N/A 0 0
12:55 am 00:55 Clear 43 6 29 -1.6 59 59 NW 5 7 30.06 1018 N/A 0 0
1:15 am 01:15 Clear 42 5.8 28 -2 58 58 Calm 30.06 1018 N/A 0 0
1:35 am 01:35 Clear 38 3.1 30 -1.1 74 74 Calm 30.07 1018 N/A 0 0
1:55 am 01:55 Clear 40 4.2 29 -1.8 65 65 Calm 30.07 1018 N/A 0 0
2:15 am 02:15 Clear 41 4.8 28 -2.2 61 61 Calm 30.06 1018 N/A 0 0
2:35 am 02:35 Clear 43 6 28 -2.4 55 55 Calm 30.06 1018 N/A 0 0
2:55 am 02:55 Clear 40 4.4 29 -1.8 64 64 S 3 6 30.06 1018 N/A 0 0
3:15 am 03:15 Clear 39 3.7 29 -1.8 68 68 Calm 30.07 1018 N/A 0 0
3:35 am 03:35 undefined 37 2.9 34 0.9 87 87 Calm 30.07 1018 N/A 0 0
3:55 am 03:55 undefined 36 2.4 34 0.9 90 90 Calm 30.07 1018 N/A 0 0
4:15 am 04:15 undefined 37 2.9 33 0.7 86 86 Calm 30.07 1018 N/A 0 0
4:35 am 04:35 undefined 36 2 33 0.5 90 90 Calm 30.06 1018 N/A 0 0
4:55 am 04:55 undefined 35 1.8 33 0.5 91 91 Calm 30.07 1018 N/A 0 0
5:15 am 05:15 undefined 33 0.7 31 -0.3 93 93 Calm 30.07 1018 N/A 0 0
5:35 am 05:35 undefined 35 1.8 32 -0.1 87 87 Calm 30.07 1018 N/A 0 0
5:55 am 05:55 undefined 34 1.1 31 -0.3 91 91 Calm 30.07 1018 N/A 0 0
6:15 am 06:15 undefined 34 1 32 -0.2 92 92 Calm 30.07 1018 N/A 0 0
6:35 am 06:35 undefined 33 0.7 31 -0.4 92 92 WSW 3 6 30.07 1018 N/A 0 0
6:55 am 06:55 Mostly Cloudy 36 2 32 0.2 88 88 WSW 3 6 30.08 1019 N/A 0 0
7:15 am 07:15 undefined 36 2.4 33 0.4 87 87 SW 5 7 30.08 1019 N/A 0 0
7:35 am 07:35 Sunny 39 3.8 34 1.2 83 83 SW 6 9 30.08 1018 N/A 0 0
7:55 am 07:55 Sunny 42 5.4 34 1.1 74 74 SW 7 11 30.08 1019 N/A 0 0
8:15 am 08:15 Sunny 44 6.7 35 1.5 70 70 SW 7 11 30.07 1018 N/A 0 0
8:35 am 08:35 Sunny 46 7.5 34 1.2 65 65 SW 7 11 30.07 1018 N/A 0 0
8:55 am 08:55 Sunny 48 8.7 35 1.6 61 61 SSW 8 13 30.06 1018 N/A 0 0
9:15 am 09:15 Sunny 50 9.8 35 1.9 58 58 SSW 8 13 30.06 1018 N/A 0 0
9:35 am 09:35 Sunny 53 11.4 37 2.9 56 56 WSW 8 13 30.06 1018 N/A 0 0
9:55 am 09:55 Sunny 54 12.2 39 3.8 57 57 SSW 7 11 30.04 1017 N/A 0 0
10:15 am 10:15 Sunny 55 13 41 4.8 58 58 SW 7 11 30.04 1017 N/A 0 0
10:35 am 10:35 Sunny 58 14.3 43 6 58 58 SSW 9 15 30.03 1017 N/A 0 0
10:55 am 10:55 Sunny 61 16 42 5.8 51 51 W 9 15 30.02 1017 N/A 0 0
11:15 am 11:15 Sunny 62 16.7 41 5.1 46 46 W 17 28 30.02 1017 N/A 0 0
11:35 am 11:35 Sunny 63 17.1 40 4.5 43 43 WSW 17 28 30.02 1017 N/A 0 0
11:55 am 11:55 Sunny 64 17.5 39 4.1 41 41 W 16 26 30.01 1016 N/A 0 0
12:15 pm 12:15 Partly Cloudy 64 17.5 35 1.9 35 35 W 18 30 30.01 1016 N/A 0 0
12:35 pm 12:35 Partly Cloudy 64 17.8 38 3.1 38 38 W 16 26 30 1016 N/A 0 0
12:55 pm 12:55 Partly Cloudy 65 18.2 38 3.1 37 37 W 14 22 29.99 1016 N/A 0 0
1:15 pm 13:15 Partly Cloudy 65 18.5 37 2.6 35 35 W 14 22 29.98 1015 N/A 0 0
1:35 pm 13:35 Partly Cloudy 66 18.8 38 3.2 36 36 W 17 28 29.97 1015 N/A 0 0
1:55 pm 13:55 Mostly Cloudy 64 17.8 37 2.9 37 37 W 17 28 29.96 1015 N/A 0 0
2:15 pm 14:15 Mostly Cloudy 66 19 38 3.1 35 35 W 15 24 29.96 1014 N/A 0 0
2:35 pm 14:35 Mostly Cloudy 66 18.9 38 3.4 36 36 WSW 17 28 29.96 1014 N/A 0 0
2:55 pm 14:55 Mostly Cloudy 67 19.6 38 3.6 35 35 W 24 39 29.96 1014 N/A 0 0
3:15 pm 15:15 Cloudy 66 18.7 37 2.9 35 35 WNW 14 22 29.96 1014 N/A 0 0
3:35 pm 15:35 Cloudy 64 18 37 2.7 36 36 WNW 18 30 29.96 1015 N/A 0 0
3:55 pm 15:55 Cloudy 66 18.7 37 3 35 35 W 20 31 29.95 1014 N/A 0 0
4:15 pm 16:15 Mostly Cloudy 67 19.3 39 3.8 36 36 W 15 24 29.94 1014 N/A 0 0
4:35 pm 16:35 Mostly Cloudy 66 18.9 38 3.2 35 35 W 16 26 29.95 1014 N/A 0 0
4:55 pm 16:55 Cloudy 67 19.2 37 2.7 34 34 W 20 31 29.95 1014 N/A 0 0
5:15 pm 17:15 Cloudy 65 18.5 37 2.5 35 35 W 21 33 29.95 1014 N/A 0 0
5:35 pm 17:35 Cloudy 65 18.2 37 2.5 35 35 W 21 33 29.94 1014 N/A 0 0
5:55 pm 17:55 Cloudy 66 18.9 38 3.5 36 36 W 16 26 29.94 1014 N/A 0 0
6:15 pm 18:15 Cloudy 65 18.2 38 3.6 38 38 WNW 9 15 29.93 1014 N/A 0 0
6:35 pm 18:35 Cloudy 64 17.9 39 3.7 39 39 W 20 31 29.93 1014 N/A 0 0
6:55 pm 18:55 Cloudy 65 18.2 38 3.4 38 38 W 17 28 29.92 1013 N/A 0 0
7:15 pm 19:15 Cloudy 64 17.5 38 3.3 39 39 W 18 30 29.92 1013 N/A 0 0
7:35 pm 19:35 Cloudy 63 17.2 38 3.6 41 41 W 10 17 29.92 1013 N/A 0 0
7:55 pm 19:55 Mostly Cloudy 63 17 38 3.2 40 40 W 13 20 29.92 1013 N/A 0 0
8:15 pm 20:15 Mostly Cloudy 62 16.5 37 2.9 40 40 W 13 20 29.92 1013 N/A 0 0
8:35 pm 20:35 Cloudy 62 16.4 38 3.3 42 42 W 12 19 29.93 1014 N/A 0 0
8:55 pm 20:55 Cloudy 61 16.1 38 3.5 43 43 WSW 9 15 29.93 1014 N/A 0 0
9:15 pm 21:15 Clear 58 14.6 40 4.2 50 50 WSW 9 15 29.94 1014 N/A 0 0
9:35 pm 21:35 Clear 56 13.6 40 4.6 55 55 WSW 7 11 29.95 1014 N/A 0 0
9:55 pm 21:55 Cloudy 56 13.5 41 5.1 57 57 WSW 7 11 29.95 1014 N/A 0 0
10:15 pm 22:15 Mostly Cloudy 55 12.7 42 5.6 62 62 WSW 5 7 29.95 1014 N/A 0 0
10:35 pm 22:35 Mostly Cloudy 57 13.8 41 5 56 56 WSW 5 7 29.95 1014 N/A 0 0
10:55 pm 22:55 Cloudy 55 12.6 43 6.2 65 65 WSW 6 9 29.94 1014 N/A 0 0
11:15 pm 23:15 Cloudy 54 12.4 42 5.8 64 64 SW 7 11 29.93 1014 N/A 0 0
11:35 pm 23:35 Cloudy 54 12.2 44 6.4 68 68 WSW 7 11 29.93 1014 N/A 0 0
11:55 pm 23:55 Cloudy 54 12.3 44 6.5 68 68 WSW 5 7 29.92 1013 N/A 0 0

Powered by AerisWeather